Estación de Campanacura

Ultimos registro cada 15 minutos 65
Estación Fecha / Hora Temperatura Humedad Lluvia Velocidad Dirección Radiación Presion
65 Campanacura 04-05-2026 16:00 15,9 28,4 0 0 138 123,1 1001,1
64 Campanacura 04-05-2026 15:45 15,8 26,6 0 0 138 144,4 1001,1
63 Campanacura 04-05-2026 15:30 15,7 24,7 0 0 138 111,9 1001,1
62 Campanacura 04-05-2026 15:15 15,8 24,6 0 0 138 106,9 1001
61 Campanacura 04-05-2026 15:00 16,1 20,7 0 0 138 141,9 1001
60 Campanacura 04-05-2026 14:45 15,7 21,8 0 0 146 175,6 1001,4
59 Campanacura 04-05-2026 14:30 15,2 20,1 0 0 152 173,1 1001,5
58 Campanacura 04-05-2026 14:15 15,3 18,2 0 0 152 213,1 1001,7
57 Campanacura 04-05-2026 14:00 15,1 18 0 0 152 169,4 1001,9
56 Campanacura 04-05-2026 13:45 15,2 16,2 0 0 150 170,6 1002,4
55 Campanacura 04-05-2026 13:30 15,2 13,9 0 0 135 219,4 1002,6
54 Campanacura 04-05-2026 13:15 15 13,2 0 0 110 118,1 1002,9
53 Campanacura 04-05-2026 13:00 14,6 13,6 0 0 111 105,6 1003
52 Campanacura 04-05-2026 12:45 14,6 13,6 0 0 115 124,4 1003,1
51 Campanacura 04-05-2026 12:30 14,2 14 0 0 135 105,6 1003,4
50 Campanacura 04-05-2026 12:15 14 14,3 0 0 140 121,9 1003,3
49 Campanacura 04-05-2026 12:00 14 14,7 0 0 143 88,1 1003,5
48 Campanacura 04-05-2026 11:45 13,6 15 0 0 146 96,9 1003,6
47 Campanacura 04-05-2026 11:30 13,6 15,3 0 0 152 126,9 1003,4
46 Campanacura 04-05-2026 11:15 13,2 15,8 0 0 152 118,1 1003,3
45 Campanacura 04-05-2026 11:00 13,4 15,9 0 0 129 81,9 1003,4
44 Campanacura 04-05-2026 10:45 13,2 16,3 0 0 110 93,1 1003
43 Campanacura 04-05-2026 10:30 13,1 16,7 0 0 112 96,9 1003,1
42 Campanacura 04-05-2026 10:15 13,1 16,9 0 0 121 90,6 1003,2
41 Campanacura 04-05-2026 10:00 12,7 17,1 0 0 121 60,6 1003,3
40 Campanacura 04-05-2026 09:45 12,5 17,3 0 0 121 60,6 1003,1
39 Campanacura 04-05-2026 09:30 12,6 17,4 0 0 121 66,9 1003
38 Campanacura 04-05-2026 09:15 12,3 17,6 0 0 121 55,6 1002,9
37 Campanacura 04-05-2026 09:00 12,3 17,7 0 0 121 94,4 1002,7
36 Campanacura 04-05-2026 08:45 12,2 17,7 0 0 126 73,1 1002,5
35 Campanacura 04-05-2026 08:30 12 18,1 0 0 128 44,4 1002,7
34 Campanacura 04-05-2026 08:15 11,7 18,2 0 0 128 38,1 1002,7
33 Campanacura 04-05-2026 08:00 11,4 18,5 0 0 128 15,6 1002,4
32 Campanacura 04-05-2026 07:45 11,2 18,6 0 0 128 8,1 1002,3
31 Campanacura 04-05-2026 07:30 11,4 18,3 0 0 128 0,6 1002,1
30 Campanacura 04-05-2026 07:15 11,5 18,2 0 0 128 0,6 1002,3
29 Campanacura 04-05-2026 07:00 11,5 18,2 0 0 128 0,6 1002,5
28 Campanacura 04-05-2026 06:45 11,5 18,1 0 0 128 0,6 1002,5
27 Campanacura 04-05-2026 06:30 11,5 18,2 0 0 128 0,6 1002,4
26 Campanacura 04-05-2026 06:15 11,5 18,2 0 0 128 0,6 1002,1
25 Campanacura 04-05-2026 06:00 11,5 18,1 0 0 128 0,6 1002,2
24 Campanacura 04-05-2026 05:45 11,5 18,1 0 0 128 0,6 1001,9
23 Campanacura 04-05-2026 05:30 11,5 18,1 0 0 128 0,6 1002
22 Campanacura 04-05-2026 05:15 11,5 18,1 0 0 128 0,6 1001,8
21 Campanacura 04-05-2026 05:00 11,5 18,2 0 0 128 0,6 1001,8
20 Campanacura 04-05-2026 04:45 11,5 18,2 0 0 128 0,6 1001,6
19 Campanacura 04-05-2026 04:30 11,5 18,2 0 0 128 0,6 1001,8
18 Campanacura 04-05-2026 04:15 11,4 18,2 0 0 128 0,6 1001,4
17 Campanacura 04-05-2026 04:00 11,5 18,2 0 0 128 0,6 1001,6
16 Campanacura 04-05-2026 03:45 11,4 18,2 0 0 128 0,6 1002,2
15 Campanacura 04-05-2026 03:30 11,4 18,2 0 0 128 0,6 1002,2
14 Campanacura 04-05-2026 03:15 11,4 18,2 0 0 128 0,6 1002,2
13 Campanacura 04-05-2026 03:00 11,4 18,2 0 0 128 0,6 1002,3
12 Campanacura 04-05-2026 02:45 11,3 18,2 0 0 128 0,6 1002,2
11 Campanacura 04-05-2026 02:30 11,3 18,2 0 0 128 0,6 1002,4
10 Campanacura 04-05-2026 02:15 11,2 18,3 0 0 128 0,6 1002,5
9 Campanacura 04-05-2026 02:00 11,2 18,3 0 0 128 0,6 1002,8
8 Campanacura 04-05-2026 01:45 11,2 18,5 0 0 122 0,6 1003
7 Campanacura 04-05-2026 01:30 11 18,6 0 0 110 0,6 1003,3
6 Campanacura 04-05-2026 01:15 11,2 18,2 0 0 110 0,6 1003,3
5 Campanacura 04-05-2026 01:00 11,5 18 0 0 110 0,6 1003,5
4 Campanacura 04-05-2026 00:45 11,6 17,9 0 0 110 0,6 1003,6
3 Campanacura 04-05-2026 00:30 11,6 17,9 0 0 104 0,6 1003,6
2 Campanacura 04-05-2026 00:15 11,8 17,9 0 0 101 0,6 1003,4
1 Campanacura 04-05-2026 00:00 11,7 17,9 0 0 101 0,6 1003,5